Location: Chandler
(33.3060°N, 111.8410°W)
Time: 05:04:33
(UTC-07:00)

Amateur Radio Satellites - All Passes

Search period start: 24 August 2016 04:34
Search period end: 25 August 2016 04:34
Location: Chandler, 33.3060°N, 111.8410°W

Satellite Date Start Highest point End Downlink Frequencies (MHz)
Time Altitude Azimuth
CUBESAT XI-V 24 Aug 04:35:11 04:39:32 44° 74° (ENE) 04:43:54 437.345
STARS 24 Aug 04:38:13 04:42:26 43° 261° (W) 04:46:40 437.465
Cosmos 2491 24 Aug 04:43:27 04:51:06 32° 74° (ENE) 04:58:41 435.465 / 435.565
ITAMSAT 1 24 Aug 05:03:19 05:04:51 11° 297° (WNW) 05:06:23 435.822/435.867
HORYU 2 24 Aug 05:08:29 05:12:43 44° 100° (E) 05:16:54 437.375
PHONESAT 2.4 24 Aug 05:20:01 05:22:21 20° 356° (N) 05:24:40 2401.200-2431.200
RS-15 24 Aug 05:23:58 05:30:11 15° 338° (NNW) 05:36:32 29.354- 29.394
GOMX 1 24 Aug 05:27:12 05:29:21 12° 90° (E) 05:31:27 467.674
BRITE-PL 24 Aug 05:27:44 05:32:49 33° 96° (E) 05:37:47 437.365/2234.400
CUTE-I 24 Aug 05:33:19 05:35:55 14° 93° (E) 05:38:32 437.470
NOAA 18 24 Aug 05:38:53 05:41:39 14° 93° (E) 05:44:25 137.9125
NOAA 15 24 Aug 05:46:31 05:50:55 26° 97° (E) 05:55:17 137.62
AO-85 24 Aug 05:49:13 05:54:36 80° 117° (ESE) 05:59:46 145.980
YUBILEINY 24 Aug 05:53:16 06:01:27 45° 88° (E) 06:09:39 435.215
STRAND 1 24 Aug 05:55:41 05:59:01 18° 67° (ENE) 06:02:21 437.568
AO-7 24 Aug 06:01:01 06:07:00 23° 302° (WNW) 06:12:58 29.400- 29.500
LilacSat-2 24 Aug 06:02:19 06:05:25 24° 96° (E) 06:08:29 437.200
CUBESAT XI-V 24 Aug 06:14:45 06:17:05 14° 267° (W) 06:19:25 437.345
Cosmos 2491 24 Aug 06:39:44 06:48:03 48° 271° (W) 06:56:22 435.465 / 435.565
Cosmos 2504 24 Aug 06:44:15 06:51:39 33° 87° (E) 06:58:40 435.465 / 435.565
HORYU 2 24 Aug 06:46:39 06:48:51 14° 293° (WNW) 06:51:01 437.375
PHONESAT 2.4 24 Aug 06:56:38 06:59:15 27° 13° (NNE) 07:01:52 2401.200-2431.200
Cubesat XI-IV 24 Aug 06:57:46 07:03:07 80° 283° (WNW) 07:08:24 437.490
GOMX 1 24 Aug 07:02:26 07:07:51 66° 285° (WNW) 07:13:00 467.674
CINEMA 3 24 Aug 07:04:40 07:06:20 12° 91° (E) 07:07:58 145.822/145.860
BRITE-PL 24 Aug 07:06:14 07:11:05 30° 290° (WNW) 07:15:53 437.365/2234.400
CUTE-I 24 Aug 07:11:04 07:16:16 58° 286° (WNW) 07:21:27 437.470
NOAA 18 24 Aug 07:17:15 07:22:37 60° 287° (WNW) 07:27:58 137.9125
CANX-2 24 Aug 07:19:56 07:22:28 15° 94° (E) 07:25:00 2200.000
NOAA 15 24 Aug 07:25:58 07:30:38 32° 290° (WNW) 07:35:17 137.62
CUTE 1.7 + AOD 2 24 Aug 07:26:46 07:29:23 16° 94° (E) 07:32:01 437.475
DOVE 4 24 Aug 07:29:27 07:34:34 77° 284° (WNW) 07:39:21 437.250
STRAND 1 24 Aug 07:32:55 07:37:47 45° 260° (W) 07:42:41 437.568
AO-85 24 Aug 07:32:58 07:35:34 14° 312° (NW) 07:38:07 145.980
LilacSat-2 24 Aug 07:37:02 07:39:30 17° 290° (WNW) 07:41:58 437.200
PRISM 24 Aug 07:41:10 07:44:09 20° 69° (ENE) 07:47:08 437.425
RS-15 24 Aug 07:45:07 07:50:43 14° 18° (NNE) 07:56:20 29.354- 29.394
YUBILEINY 24 Aug 07:50:29 07:58:16 34° 285° (WNW) 08:06:07 435.215
AAUSAT CUBESAT 2 24 Aug 07:51:32 07:51:45 10° 92° (E) 07:51:58 437.432
COMPASS 1 24 Aug 07:53:29 07:55:56 15° 94° (E) 07:58:22 437.405
HO-68 24 Aug 08:23:29 08:30:40 73° 104° (ESE) 08:37:47 435.675
PHONESAT 2.4 24 Aug 08:32:49 08:35:47 66° 208° (SSW) 08:38:45 2401.200-2431.200
Cosmos 2504 24 Aug 08:36:35 08:44:44 45° 281° (W) 08:52:26 435.465 / 435.565
CINEMA 3 24 Aug 08:39:23 08:43:45 47° 286° (WNW) 08:47:55 145.822/145.860
SEEDS 24 Aug 08:40:46 08:44:59 87° 274° (W) 08:49:11 437.485
SO-50 24 Aug 08:47:49 08:51:34 24° 53° (NE) 08:55:13 436.795
ISS 24 Aug 08:49:48 08:52:48 36° 132° (SE) 08:55:50 145.825
CANX-2 24 Aug 08:54:33 08:58:21 33° 287° (WNW) 09:02:10 2200.000
UNISAT 6 24 Aug 08:55:12 08:57:41 14° 67° (ENE) 09:00:09 437.425
CUTE 1.7 + AOD 2 24 Aug 09:01:29 09:05:15 32° 287° (WNW) 09:09:02 437.475
AIST 1 24 Aug 09:13:36 09:17:46 51° 93° (E) 09:22:00
PRISM 24 Aug 09:15:55 09:19:16 24° 263° (W) 09:22:38 437.425
AAUSAT CUBESAT 2 24 Aug 09:23:26 09:27:26 48° 285° (WNW) 09:31:27 437.432
CUBEBUG 2 24 Aug 09:23:35 09:27:44 54° 285° (WNW) 09:31:48 437.445
COMPASS 1 24 Aug 09:27:46 09:31:31 33° 287° (WNW) 09:35:17 437.405
UWE-3 24 Aug 09:29:24 09:33:36 74° 284° (WNW) 09:37:43 435.000/436.395/437.385
ANTELSAT 24 Aug 09:30:22 09:34:35 35° 73° (ENE) 09:38:45 437.575/2403.000
Oscar 11 24 Aug 09:31:21 09:35:39 70° 101° (ESE) 09:39:56 145.826/435.025
FUNcube-1 24 Aug 09:33:33 09:37:41 68° 101° (E) 09:41:46 145.935
HUMSAT D 24 Aug 09:39:00 09:41:01 13° 94° (E) 09:43:01 437.325/437.525
BEESAT 2 24 Aug 09:51:45 09:54:53 23° 111° (ESE) 09:58:03 435.950
ZACube-1 24 Aug 09:52:52 09:56:59 62° 284° (WNW) 10:01:02 437.345
RS-15 24 Aug 09:56:45 10:08:12 41° 49° (NE) 10:19:23 29.354- 29.394
DELFI C3 24 Aug 09:59:58 10:03:55 60° 100° (E) 10:07:52 145.870
TIGRISAT 24 Aug 10:01:57 10:06:37 79° 75° (ENE) 10:11:12 435.000
HO-68 24 Aug 10:13:00 10:17:36 19° 300° (WNW) 10:22:11 435.675
QB50P1 24 Aug 10:16:14 10:18:34 14° 68° (ENE) 10:20:52 145.935-145.965
BEESAT 3 24 Aug 10:16:54 10:20:47 75° 299° (WNW) 10:24:43 437.485
POPSAT HIP 1 24 Aug 10:25:11 10:28:07 18° 69° (ENE) 10:31:02 437.405
ISS 24 Aug 10:26:57 10:29:19 18° 326° (NW) 10:31:41 145.825
M-CUBED/EXP-1 PRIME 24 Aug 10:27:10 10:28:42 12° 96° (E) 10:30:12 437.505
SO-50 24 Aug 10:28:05 10:31:58 28° 249° (WSW) 10:35:46 436.795
UNISAT 6 24 Aug 10:29:31 10:33:59 46° 260° (W) 10:38:25 437.425
CUSAT 1 24 Aug 10:34:07 10:40:27 67° 82° (E) 10:48:05 437.405
JUGNU 24 Aug 10:38:59 10:39:11 10° 163° (SSE) 10:39:21 437.505
ESTCUBE 1 24 Aug 10:52:58 10:55:46 16° 94° (E) 10:58:34 437.505/2401.250
QB50P2 24 Aug 10:53:18 10:57:21 42° 74° (ENE) 11:01:24 145.880/145.840
DANDE 24 Aug 10:54:49 10:59:46 37° 81° (E) 11:06:02 436.750
POLYITAN 1 24 Aug 10:55:50 10:59:53 43° 74° (ENE) 11:03:57 437.675
DUCHIFAT 1 24 Aug 10:56:22 11:00:17 37° 73° (ENE) 11:04:13 145.980
NANOSAT C BR1 24 Aug 11:07:57 11:12:08 57° 75° (ENE) 11:16:20 145.865
ANTELSAT 24 Aug 11:08:10 11:11:18 18° 265° (W) 11:14:26 437.575/2403.000
HUMSAT D 24 Aug 11:13:00 11:16:43 35° 287° (WNW) 11:20:27 437.325/437.525
AISAT 24 Aug 11:17:11 11:19:57 16° 94° (E) 11:22:42 437.250
BEESAT 2 24 Aug 11:29:27 11:32:36 23° 306° (NW) 11:35:47 435.950
AIST 2 24 Aug 11:33:52 11:34:18 10° 107° (ESE) 11:34:44 435.215
UKube-1 24 Aug 11:46:46 11:49:32 16° 95° (E) 11:52:16 .
QB50P1 24 Aug 11:49:57 11:53:57 39° 261° (W) 11:57:58 145.935-145.965
Cosmos 2499 24 Aug 11:52:26 12:00:21 47° 90° (E) 12:07:44 435.465 / 435.565
Oscar 19 24 Aug 11:52:33 11:54:55 13° 64° (ENE) 11:57:19 437.125/150
50 SAT 24 Aug 11:54:21 11:57:49 42° 99° (E) 12:01:17 437.505
AUBIESAT-1 24 Aug 11:57:06 12:01:06 53° 290° (WNW) 12:04:47 437.475
M-CUBED/EXP-1 PRIME 24 Aug 11:59:34 12:03:28 40° 292° (WNW) 12:07:05 437.505
POPSAT HIP 1 24 Aug 11:59:51 12:03:37 30° 262° (W) 12:07:25 437.405
PCSat 24 Aug 12:02:03 12:07:25 68° 113° (ESE) 12:12:48 145.827
GONETS M04 24 Aug 12:03:23 12:12:01 72° 93° (E) 12:20:46
VELOX 1 24 Aug 12:03:35 12:07:58 55° 100° (E) 12:12:19 145.980
JAS-2 24 Aug 12:05:06 12:10:16 84° 257° (WSW) 12:15:36 435.910
BUGSAT 1 24 Aug 12:06:55 12:11:08 72° 258° (WSW) 12:15:24 437.445
RS-15 24 Aug 12:09:10 12:21:07 59° 250° (WSW) 12:32:45 29.354- 29.394
CUBEBUG 1 24 Aug 12:15:34 12:20:02 83° 283° (WNW) 12:24:26 437.445
CUSAT 1 24 Aug 12:17:46 12:22:09 19° 271° (W) 12:27:01 437.405
JUGNU 24 Aug 12:23:31 12:27:29 19° 171° (S) 12:31:27 437.505
ESTCUBE 1 24 Aug 12:28:29 12:32:39 37° 288° (WNW) 12:36:49 437.505/2401.250
QB50P2 24 Aug 12:31:29 12:33:17 12° 267° (W) 12:35:07 145.880/145.840
Gurwin Techsat 1B 24 Aug 12:32:21 12:35:20 15° 65° (ENE) 12:38:18 435.225
DX 1 24 Aug 12:33:40 12:38:04 84° 104° (ESE) 12:42:27 434.975-435.025
DUCHIFAT 1 24 Aug 12:33:48 12:36:04 14° 266° (W) 12:38:20 145.980
POLYITAN 1 24 Aug 12:34:05 12:35:50 12° 267° (W) 12:37:36 437.675
DANDE 24 Aug 12:37:49 12:42:24 27° 266° (W) 12:47:59 436.750
SPROUT 24 Aug 12:50:48 12:55:05 81° 282° (WNW) 12:59:20 437.525
AISAT 24 Aug 12:52:24 12:56:29 36° 288° (WNW) 13:00:33 437.250
AIST 2 24 Aug 13:08:16 13:12:15 51° 301° (WNW) 13:16:17 435.215
AO-7 24 Aug 13:14:55 13:17:45 12° 52° (NE) 13:20:34 29.400- 29.500
UKube-1 24 Aug 13:21:43 13:25:36 33° 288° (WNW) 13:29:29 .
TISAT 1 24 Aug 13:23:34 13:27:36 44° 99° (E) 13:31:36 437.305
Oscar 19 24 Aug 13:28:34 13:33:39 62° 259° (W) 13:38:47 437.125/150
VELOX 1 24 Aug 13:42:28 13:43:54 11° 295° (WNW) 13:45:19 145.980
Cosmos 2499 24 Aug 13:46:26 13:53:30 30° 284° (WNW) 14:00:12 435.465 / 435.565
PCSat 24 Aug 13:48:09 13:51:17 15° 309° (NW) 13:54:26 145.827
ITUPSAT 1 24 Aug 13:49:01 13:51:31 14° 94° (E) 13:54:00 437.325
SRMSAT 24 Aug 13:54:06 13:57:18 15° 167° (SSE) 14:00:30 437.500
GONETS M04 24 Aug 14:03:31 14:09:34 20° 290° (WNW) 14:15:42
Gurwin Techsat 1B 24 Aug 14:09:32 14:14:44 57° 259° (W) 14:19:59 435.225
JUGNU 24 Aug 14:11:30 14:15:52 21° 182° (S) 14:20:13 437.505
SWISSCUBE 24 Aug 14:22:28 14:26:55 39° 99° (E) 14:31:22 437.505
AO-85 24 Aug 14:26:35 14:29:37 19° 51° (NE) 14:32:31 145.980
O/OREOS (USA 219) 24 Aug 14:30:17 14:34:42 60° 291° (WNW) 14:39:10 437.305
ITAMSAT 1 24 Aug 14:34:36 14:39:46 74° 74° (ENE) 14:44:57 435.822/435.867
BEESAT 24 Aug 14:39:52 14:44:32 55° 101° (E) 14:49:12 436.000
AO-7 24 Aug 15:00:42 15:08:58 68° 69° (ENE) 15:17:14 29.400- 29.500
TISAT 1 24 Aug 15:01:06 15:02:48 12° 293° (WNW) 15:04:30 437.305
ITUPSAT 1 24 Aug 15:24:58 15:29:32 47° 287° (WNW) 15:34:05 437.325
MOZHAYETS 4 24 Aug 15:26:01 15:29:36 22° 96° (E) 15:33:10
SRMSAT 24 Aug 15:41:28 15:45:48 21° 177° (S) 15:50:09 437.500
KKS-1 24 Aug 15:46:10 15:50:02 28° 97° (E) 15:53:51 437.445
JUGNU 24 Aug 16:00:41 16:04:13 16° 191° (SSW) 16:07:44 437.505
SWISSCUBE 24 Aug 16:01:15 16:04:22 18° 293° (WNW) 16:07:30 437.505
HORYU 2 24 Aug 16:02:45 16:06:24 25° 70° (ENE) 16:10:03 437.375
AO-85 24 Aug 16:06:31 16:10:04 28° 249° (WSW) 16:13:25 145.980
YUBILEINY 24 Aug 16:10:25 16:15:34 17° 68° (ENE) 16:20:40 435.215
BEESAT 24 Aug 16:19:43 16:21:48 13° 295° (WNW) 16:23:53 436.000
STARS 24 Aug 16:31:35 16:35:49 44° 100° (E) 16:39:59 437.465
BRITE-PL 24 Aug 16:35:13 16:38:39 20° 67° (ENE) 16:42:17 437.365/2234.400
CUBESAT XI-V 24 Aug 16:37:00 16:39:51 16° 94° (E) 16:42:40 437.345
Cubesat XI-IV 24 Aug 16:39:30 16:41:29 12° 63° (ENE) 16:43:27 437.490
CUTE-I 24 Aug 16:51:07 16:54:21 16° 65° (ENE) 16:57:34 437.470
AO-7 24 Aug 16:56:07 17:02:10 22° 264° (W) 17:08:17 29.400- 29.500
ISS 24 Aug 16:56:38 16:59:53 75° 44° (NE) 17:03:07 145.825
NOAA 18 24 Aug 17:00:39 17:04:33 20° 65° (ENE) 17:08:26 137.9125
NOAA 15 24 Aug 17:02:40 17:07:02 28° 69° (ENE) 17:11:26 137.62
MOZHAYETS 4 24 Aug 17:02:50 17:06:40 27° 289° (WNW) 17:10:31
KKS-1 24 Aug 17:23:02 17:26:23 21° 291° (WNW) 17:29:42 437.445
SRMSAT 24 Aug 17:30:11 17:34:20 20° 187° (S) 17:38:29 437.500
Cosmos 2491 24 Aug 17:39:11 17:47:07 41° 88° (E) 17:55:06 435.465 / 435.565
HORYU 2 24 Aug 17:39:15 17:42:50 23° 263° (W) 17:46:26 437.375
YUBILEINY 24 Aug 18:04:34 18:13:22 84° 266° (W) 18:22:04 435.215
GOMX 1 24 Aug 18:05:32 18:10:24 84° 77° (ENE) 18:15:39 467.674
STARS 24 Aug 18:09:35 18:11:44 13° 294° (WNW) 18:13:51 437.465
BRITE-PL 24 Aug 18:12:40 18:16:49 33° 264° (W) 18:21:18 437.365/2234.400
CUBESAT XI-V 24 Aug 18:12:55 18:17:19 41° 287° (WNW) 18:21:43 437.345
LilacSat-2 24 Aug 18:13:21 18:17:10 64° 259° (W) 18:21:00 437.200
Cubesat XI-IV 24 Aug 18:15:31 18:20:52 73° 258° (WSW) 18:26:13 437.490
CUTE-I 24 Aug 18:28:42 18:33:54 53° 259° (W) 18:39:07 437.470
DOVE 4 24 Aug 18:29:36 18:34:33 67° 76° (ENE) 18:39:47 437.250
Cosmos 2504 24 Aug 18:34:12 18:41:13 51° 80° (E) 18:48:09 435.465 / 435.565
BEESAT 3 24 Aug 18:38:47 18:41:27 17° 52° (NE) 18:44:06 437.485
NOAA 18 24 Aug 18:39:29 18:44:48 47° 260° (W) 18:50:08 137.9125
NOAA 15 24 Aug 18:42:10 18:46:40 29° 263° (W) 18:51:13 137.62
HO-68 24 Aug 18:47:48 18:54:11 36° 66° (ENE) 19:00:34 435.675
SRMSAT 24 Aug 19:20:45 19:22:49 12° 196° (SSW) 19:24:53 437.500
SEEDS 24 Aug 19:28:23 19:32:10 35° 73° (ENE) 19:35:58 437.485
CINEMA 3 24 Aug 19:35:22 19:40:22 89° 251° (WSW) 19:45:26 145.822/145.860
Cosmos 2491 24 Aug 19:36:06 19:43:53 36° 284° (WNW) 19:51:46 435.465 / 435.565
CANX-2 24 Aug 19:42:25 19:46:38 85° 258° (WSW) 19:50:51 2200.000
STRAND 1 24 Aug 19:47:17 19:52:25 86° 103° (ESE) 19:57:31 437.568
CUTE 1.7 + AOD 2 24 Aug 19:49:14 19:53:26 82° 260° (W) 19:57:39 437.475
BEESAT 2 24 Aug 19:50:13 19:54:09 54° 60° (ENE) 19:58:04 435.950
YUBILEINY 24 Aug 20:05:35 20:08:42 12° 282° (WNW) 20:11:49 435.215
AAUSAT CUBESAT 2 24 Aug 20:09:05 20:13:06 59° 76° (ENE) 20:17:09 437.432
DOVE 4 24 Aug 20:11:12 20:12:41 11° 270° (W) 20:14:11 437.250
COMPASS 1 24 Aug 20:13:38 20:17:45 90° 265° (W) 20:21:53 437.405
BEESAT 3 24 Aug 20:15:37 20:19:10 32° 247° (WSW) 20:22:42 437.485
CUBEBUG 2 24 Aug 20:16:27 20:21:11 71° 76° (ENE) 20:25:50 437.445
UWE-3 24 Aug 20:21:31 20:26:00 52° 75° (ENE) 20:30:25 435.000/436.395/437.385
Oscar 11 24 Aug 20:22:08 20:25:55 31° 72° (ENE) 20:29:42 145.826/435.025
FUNcube-1 24 Aug 20:24:46 20:28:45 32° 72° (ENE) 20:32:39 145.935
Cosmos 2504 24 Aug 20:28:50 20:33:59 22° 276° (W) 20:39:08 435.465 / 435.565
HO-68 24 Aug 20:35:12 20:41:44 37° 261° (W) 20:48:19 435.675
DELFI C3 24 Aug 20:42:35 20:45:24 19° 70° (ENE) 20:48:12 145.870
ZACube-1 24 Aug 20:43:48 20:48:14 58° 76° (ENE) 20:52:37 437.345
PCSat 24 Aug 20:54:48 20:59:05 23° 55° (NE) 21:03:20 145.827
PRISM 24 Aug 21:00:33 21:04:41 58° 101° (ESE) 21:08:47 437.425
AIST 1 24 Aug 21:02:07 21:06:28 61° 266° (W) 21:10:46
SEEDS 24 Aug 21:05:46 21:07:57 14° 266° (W) 21:10:09 437.485
M-CUBED/EXP-1 PRIME 24 Aug 21:09:42 21:11:08 11° 60° (ENE) 21:12:34 437.505
AIST 2 24 Aug 21:33:38 21:37:14 27° 55° (NE) 21:40:49 435.215
TIGRISAT 24 Aug 21:58:41 22:01:54 21° 95° (E) 22:05:05 435.000
Oscar 11 24 Aug 21:59:10 22:02:03 17° 265° (W) 22:04:57 145.826/435.025
HUMSAT D 24 Aug 21:59:19 22:03:32 85° 74° (ENE) 22:07:42 437.325/437.525
UWE-3 24 Aug 22:00:56 22:02:39 12° 267° (W) 22:04:22 435.000/436.395/437.385
FUNcube-1 24 Aug 22:01:50 22:04:57 19° 265° (W) 22:08:04 145.935
DELFI C3 24 Aug 22:16:54 22:20:03 23° 264° (W) 22:23:14 145.870
GONETS M04 24 Aug 22:19:41 22:27:05 29° 73° (ENE) 22:34:24
UNISAT 6 24 Aug 22:25:26 22:29:35 48° 99° (E) 22:33:42 437.425
50 SAT 24 Aug 22:30:38 22:30:57 10° 68° (ENE) 22:31:16 437.505
PCSat 24 Aug 22:37:31 22:42:36 41° 250° (WSW) 22:47:37 145.827
AUBIESAT-1 24 Aug 22:37:38 22:42:12 88° 67° (ENE) 22:46:52 437.475
M-CUBED/EXP-1 PRIME 24 Aug 22:40:24 22:44:57 71° 254° (WSW) 22:49:41 437.505
VELOX 1 24 Aug 22:56:59 23:00:48 29° 71° (ENE) 23:04:37 145.980
SO-50 24 Aug 22:58:09 23:01:47 21° 110° (ESE) 23:05:25 436.795
NANOSAT C BR1 24 Aug 22:58:30 23:00:15 12° 93° (E) 23:02:01 145.865
ANTELSAT 24 Aug 23:02:31 23:06:44 57° 285° (WNW) 23:10:53 437.575/2403.000
CUBEBUG 1 24 Aug 23:07:10 23:11:21 46° 74° (ENE) 23:15:34 437.445
O/OREOS (USA 219) 24 Aug 23:07:53 23:09:03 11° 58° (ENE) 23:10:14 437.305
AIST 2 24 Aug 23:12:21 23:15:32 21° 250° (WSW) 23:18:42 435.215
JAS-2 24 Aug 23:18:03 23:22:42 18° 94° (E) 23:27:35 435.910
ESTCUBE 1 24 Aug 23:23:15 23:27:41 69° 258° (WSW) 23:32:10 437.505/2401.250
DX 1 24 Aug 23:24:58 23:29:02 41° 73° (ENE) 23:33:09 434.975-435.025
TIGRISAT 24 Aug 23:35:00 23:38:31 25° 289° (WNW) 23:42:00 435.000
CUSAT 1 24 Aug 23:35:46 23:38:23 80° 94° (E) 23:41:23 437.405
QB50P1 24 Aug 23:38:38 23:42:39 43° 99° (E) 23:46:38 145.935-145.965
SPROUT 24 Aug 23:39:59 23:44:02 43° 74° (ENE) 23:48:08 437.525
Cosmos 2499 24 Aug 23:41:03 23:48:08 74° 83° (E) 23:55:16 435.465 / 435.565
AISAT 24 Aug 23:44:53 23:49:18 70° 258° (WSW) 23:53:46 437.250
POPSAT HIP 1 24 Aug 23:48:13 23:52:23 56° 100° (E) 23:56:29 437.405
BUGSAT 1 24 Aug 23:53:42 23:56:54 21° 96° (E) 00:00:03 437.445
50 SAT 25 Aug 00:00:49 00:04:08 36° 261° (W) 00:07:28 437.505
DANDE 25 Aug 00:02:45 00:05:12 31° 95° (E) 00:07:32 436.750
UNISAT 6 25 Aug 00:04:22 00:05:50 12° 294° (WNW) 00:07:17 437.425
UKube-1 25 Aug 00:11:21 00:15:39 70° 258° (WSW) 00:19:58 .
TISAT 1 25 Aug 00:11:46 00:14:51 20° 69° (ENE) 00:17:57 437.305
GONETS M04 25 Aug 00:15:40 00:24:09 53° 270° (W) 00:32:36
RS-15 25 Aug 00:15:40 00:25:23 34° 104° (ESE) 00:35:31 29.354- 29.394
QB50P2 25 Aug 00:17:50 00:21:57 54° 285° (WNW) 00:26:03 145.880/145.840
DUCHIFAT 1 25 Aug 00:19:48 00:23:57 63° 285° (WNW) 00:28:04 145.980
POLYITAN 1 25 Aug 00:20:23 00:24:29 53° 285° (WNW) 00:28:33 437.675
NANOSAT C BR1 25 Aug 00:32:11 00:36:08 40° 287° (WNW) 00:40:03 145.865
VELOX 1 25 Aug 00:33:58 00:37:12 20° 264° (W) 00:40:30 145.980
SO-50 25 Aug 00:37:30 00:42:00 37° 304° (WNW) 00:46:29 436.795
O/OREOS (USA 219) 25 Aug 00:44:19 00:48:52 64° 253° (WSW) 00:53:24 437.305
CUBEBUG 1 25 Aug 00:46:10 00:47:50 12° 267° (W) 00:49:29 437.445
ITUPSAT 1 25 Aug 00:53:29 00:54:41 11° 64° (ENE) 00:55:53 437.325
PHONESAT 2.4 25 Aug 01:00:59 01:02:01 11° 141° (SE) 01:03:01 2401.200-2431.200
JAS-2 25 Aug 01:01:09 01:07:54 70° 286° (WNW) 01:15:25 435.910
DX 1 25 Aug 01:03:11 01:05:22 14° 266° (W) 01:07:33 434.975-435.025
QB50P1 25 Aug 01:16:10 01:18:00 13° 293° (WNW) 01:19:49 145.935-145.965
SPROUT 25 Aug 01:18:17 01:20:09 13° 267° (W) 01:22:01 437.525
SWISSCUBE 25 Aug 01:25:06 01:29:09 29° 70° (ENE) 01:33:13 437.505
BUGSAT 1 25 Aug 01:28:54 01:32:10 23° 290° (WNW) 01:35:23 437.445
Cosmos 2499 25 Aug 01:37:05 01:40:18 14° 278° (W) 01:43:33 435.465 / 435.565
BEESAT 25 Aug 01:42:10 01:46:35 39° 72° (ENE) 01:51:01 436.000
Oscar 19 25 Aug 01:44:15 01:49:27 66° 102° (ESE) 01:54:35 437.125/150
TISAT 1 25 Aug 01:46:41 01:50:17 27° 263° (W) 01:53:56 437.305
MOZHAYETS 4 25 Aug 02:25:10 02:27:28 14° 67° (ENE) 02:29:47
RS-15 25 Aug 02:25:47 02:37:03 60° 304° (WNW) 02:49:00 29.354- 29.394
ITUPSAT 1 25 Aug 02:27:11 02:31:54 66° 258° (WSW) 02:36:39 437.325
Gurwin Techsat 1B 25 Aug 02:29:51 02:35:12 82° 105° (ESE) 02:40:30 435.225
PHONESAT 2.4 25 Aug 02:35:01 02:38:01 89° 107° (ESE) 02:41:01 2401.200-2431.200
KKS-1 25 Aug 02:41:04 02:43:54 17° 68° (ENE) 02:46:43 437.445
JAS-2 25 Aug 02:51:55 02:52:00 10° 299° (WNW) 02:52:04 435.910
ITAMSAT 1 25 Aug 02:51:56 02:56:41 36° 99° (E) 03:01:25 435.822/435.867
SWISSCUBE 25 Aug 03:03:07 03:06:52 23° 264° (W) 03:10:38 437.505
AO-7 25 Aug 03:07:59 03:14:50 28° 97° (E) 03:21:38 29.400- 29.500
BEESAT 25 Aug 03:21:26 03:24:28 17° 266° (W) 03:27:30 436.000
STARS 25 Aug 03:24:30 03:28:03 24° 70° (ENE) 03:31:37 437.465
Oscar 19 25 Aug 03:25:54 03:28:08 13° 296° (WNW) 03:30:23 437.125/150
Cosmos 2491 25 Aug 03:56:25 04:01:16 16° 67° (ENE) 04:06:06 435.465 / 435.565
MOZHAYETS 4 25 Aug 03:59:48 04:04:12 46° 261° (W) 04:08:35
PHONESAT 2.4 25 Aug 04:12:06 04:14:37 24° 349° (N) 04:17:09 2401.200-2431.200
Gurwin Techsat 1B 25 Aug 04:13:23 04:14:22 10° 298° (WNW) 04:15:21 435.225
KKS-1 25 Aug 04:15:59 04:20:07 37° 261° (W) 04:24:17 437.445
